Probability
0 0 0 0 0 0 0 0 0 0 0 0 0 0 0 0 0 0 0 0 0 0 0 0 0 0 0 0 0 1 2 2 2 1 0 0 0 0 0 0 0 0 0 0
0 0 0 0 0 0 0 0 0 0 0 0 0 0 0 0 0 0 0 0 0 0 0 0 0 0 0 0 0 1 2 2 1 0 0 0 0 0 0 0 0 0 0 0
0 0 0 0 0 0 0 0 0 0 0 0 0 0 0 0 0 0 0 0 0 0 0 0 0 0 0 0 0 1 1 1 0 0 0 0 0 0 0 0 0 0 0 0
0 0 0 0 0 0 0 0 0 0 0 0 0 0 0 0 0 0 0 0 0 0 0 0 0 0 0 0 0 0 0 0 0 0 0 0 0 0 0 0 0 0 0 0
0 0 0 0 0 0 0 0 0 0 0 0 0 0 0 0 0 0 0 0 0 0 0 0 0 0 0 0 0 0 0 0 0 0 0 0 0 0 0 0 0 0 0 0
0 0 0 0 0 0 0 0 0 0 0 0 0 0 0 0 0 0 0 0 0 0 0 0 0 0 0 0 0 0 0 0 0 0 0 0 0 0 0 0 0 0 0 0
0 0 0 0 0 0 0 0 0 0 0 0 0 0 0 0 0 0 0 0 0 0 0 0 0 0 0 0 0 0 0 0 0 0 0 0 0 0 0 0 0 0 0 0
0 0 0 0 0 0 0 0 0 0 0 0 0 0 0 0 0 0 0 0 0 0 0 0 0 0 0 0 0 0 0 0 0 0 0 0 0 0 0 0 0 0 0 0
0 0 0 0 0 0 0 0 0 0 0 0 0 0 0 0 0 0 0 0 0 0 0 0 0 0 0 0 0 0 0 0 0 0 0 0 0 0 0 0 0 0 0 0
0 0 0 0 0 0 0 0 0 0 0 0 0 0 0 0 0 0 0 0 0 0 0 0 0 0 0 0 0 0 0 0 0 0 0 0 0 0 0 0 0 0 0 0
0 0 0 0 0 0 0 0 0 0 0 0 0 0 0 0 0 0 0 0 0 0 0 0 0 0 0 0 0 0 0 0 0 0 0 0 0 0 0 0 0 0 0 0
0 0 0 0 0 0 0 0 0 0 0 0 0 0 0 0 0 0 0 0 0 0 0 0 0 0 0 0 0 0 0 0 0 0 0 0 0 0 0 0 0 0 0 0
0 0 0 0 0 0 0 0 0 0 0 0 0 0 0 0 0 0 0 0 0 0 0 0 0 0 0 0 0 0 0 0 0 0 0 0 0 0 0 0 0 0 0 0
0 0 0 0 0 0 0 0 0 0 0 0 0 0 0 0 0 0 0 0 0 0 0 0 0 0 0 0 0 0 0 0 0 0 0 0 0 0 0 0 0 0 0 0
0 0 0 0 0 0 0 0 0 0 0 0 0 0 0 0 0 0 0 0 0 0 0 0 0 0 0 0 0 0 0 0 0 0 0 0 0 0 0 0 0 0 0 0
0 0 0 0 0 0 0 0 0 0 0 0 0 0 0 0 0 0 0 0 0 0 0 0 0 0 0 0 0 0 0 0 0 0 0 0 0 0 0 0 0 0 0 0
0 0 0 0 0 0 0 0 0 0 0 0 0 0 0 0 0 0 0 0 0 0 0 0 0 0 0 0 0 0 0 0 0 0 0 0 0 0 0 0 0 0 0 0
0 0 0 0 0 0 0 0 0 0 0 0 0 0 0 0 0 0 0 0 0 0 0 0 0 0 0 0 0 0 0 0 0 0 0 0 0 0 0 0 0 0 0 0
0 0 0 0 0 0 0 0 0 0 0 0 0 0 0 0 0 0 0 0 0 0 0 0 0 0 0 0 0 0 0 0 0 0 0 0 0 0 0 0 0 0 0 0
0 0 0 0 0 0 0 0 0 0 0 0 0 0 0 0 0 0 0 0 0 0 0 0 0 0 0 0 0 0 0 0 0 0 0 0 0 0 0 0 0 0 0 0
0 0 0 0 0 0 0 0 0 0 0 0 0 0 0 0 0 0 0 0 0 0 0 0 0 0 0 0 0 0 0 0 0 0 0 0 0 0 0 0 0 0 0 0
0 0 0 0 0 0 0 0 0 0 0 0 0 0 0 0 0 0 0 0 0 0 0 0 0 0 0 0 0 0 0 0 0 0 0 0 0 0 0 0 0 0 0 0
0 0 0 0 0 0 0 0 0 0 0 0 0 0 0 0 0 0 0 0 0 0 0 0 0 0 0 0 0 0 0 0 0 0 0 0 0 0 0 0 0 0 0 0
0 0 0 0 0 0 0 0 0 0 0 0 0 0 0 0 0 0 0 0 0 0 0 0 0 0 0 0 0 0 0 0 0 0 0 0 0 0 0 0 0 0 0 0
0 0 0 0 0 0 0 0 0 0 0 0 0 0 0 0 0 0 0 0 0 0 0 0 0 0 0 0 0 0 0 0 0 0 0 0 0 0 0 0 0 0 0 0
0 0 0 0 0 0 0 0 0 0 0 0 0 0 0 0 0 0 0 0 0 0 0 0 0 0 0 0 0 0 0 0 0 0 0 0 0 0 0 0 0 0 0 0
0 0 0 0 0 0 0 0 0 0 0 0 0 0 0 0 0 0 0 0 0 0 0 0 0 0 0 0 0 0 0 0 0 0 0 0 0 0 0 0 0 0 0 0
Wind_Speed
8 7 5 7 8 6 8 9 8 9 10 10 5 6 6 5 6 6 6 6 5 5 5 5 5 5 5 5 5 5 5 4 4 4 4 3 3 4 4 4 4 4 4 3
6 7 6 9 10 9 10 10 11 12 13 8 5 4 5 5 6 6 6 6 6 6 6 6 5 5 5 5 5 5 5 5 5 4 4 4 4 4 4 4 4 4 3 4
5 2 4 9 9 9 7 7 6 10 9 4 5 5 5 5 5 6 7 7 7 7 6 5 5 4 5 5 5 5 5 5 5 5 5 5 4 4 5 4 4 3 4 4
4 3 7 7 1 3 6 7 7 7 6 4 4 6 5 4 4 6 6 7 7 6 6 6 5 5 5 5 5 5 5 5 4 4 5 5 4 4 4 4 3 3 3 3
3 4 9 4 2 3 3 6 6 7 6 4 4 6 4 3 3 4 5 6 6 6 6 6 5 5 5 5 5 4 5 5 5 5 5 5 5 4 4 3 3 3 3 3
3 4 7 4 1 1 1 6 2 2 4 3 3 4 5 4 5 5 5 5 5 6 6 5 5 5 5 5 5 5 5 5 5 5 5 5 5 4 4 3 4 3 3 3
6 6 9 2 2 2 1 6 2 1 2 2 2 4 5 5 5 5 5 6 6 5 5 5 5 5 5 5 6 6 6 5 5 5 5 5 4 4 3 3 3 3 3 3
5 6 9 2 4 5 5 2 2 2 2 2 4 5 5 5 5 6 6 6 6 5 5 5 5 5 5 6 6 6 5 5 5 5 5 4 3 4 3 3 3 2 2 3
7 8 3 5 4 3 0 2 2 2 3 2 4 5 6 5 5 5 5 5 5 5 5 5 5 5 5 7 6 6 5 5 5 5 5 4 3 3 3 2 2 2 2 2
5 6 4 4 3 2 2 3 3 3 3 3 4 5 5 5 5 5 5 5 5 5 5 6 5 5 5 6 6 5 5 5 5 5 5 4 3 3 2 2 2 2 2 2
6 6 5 3 2 3 2 2 3 3 3 3 4 5 5 5 5 5 5 5 4 4 5 6 6 6 6 6 5 5 5 5 5 5 5 4 4 3 3 2 3 3 2 2
6 3 2 3 2 1 2 3 3 3 4 3 3 4 4 4 4 4 5 5 5 5 5 6 6 6 6 5 5 5 5 5 4 4 3 3 4 4 6 5 7 7 6 4
4 1 2 3 3 2 2 3 3 3 4 4 4 3 3 4 4 4 5 5 5 5 6 6 6 6 6 5 5 4 5 5 3 3 3 4 3 3 4 6 6 7 7 7
1 1 3 3 3 2 2 2 2 3 3 3 3 3 3 3 4 4 5 5 5 5 6 6 6 6 6 5 5 5 5 5 5 3 3 3 3 3 3 4 4 4 5 6
2 2 3 2 2 2 2 2 2 3 3 3 3 3 3 4 4 5 5 5 5 5 6 5 6 6 6 5 5 5 5 4 3 3 3 3 3 3 3 3 3 3 3 4
2 2 2 3 3 3 2 2 3 4 3 3 3 3 4 4 5 5 5 5 5 6 6 5 6 6 5 5 6 5 4 7 6 3 3 3 3 3 3 3 3 3 3 3
2 2 2 3 3 3 3 3 3 4 3 3 4 3 4 4 5 5 5 4 4 5 5 5 6 6 5 5 5 4 4 5 7 4 3 3 3 3 3 2 2 3 3 4
3 3 3 3 3 4 4 3 3 3 3 4 3 3 3 4 5 5 5 5 5 6 5 5 5 5 4 5 4 4 4 3 3 3 3 3 3 3 3 2 3 3 3 3
2 2 2 3 3 3 3 3 3 3 3 3 3 3 4 4 4 5 5 5 5 6 6 6 9 6 5 5 5 3 3 4 4 3 3 5 4 3 2 2 3 3 3 3
2 2 2 2 2 2 2 2 2 2 2 2 3 3 4 4 4 4 4 5 4 4 5 6 6 5 4 5 6 3 3 4 4 4 3 3 3 3 3 3 3 3 3 3
2 2 2 2 2 2 2 2 2 3 3 3 3 4 4 4 4 4 4 5 5 5 5 7 5 4 4 5 6 3 3 4 4 3 3 3 3 3 3 3 3 3 3 3
2 1 2 2 2 2 2 2 2 2 3 3 3 3 4 4 4 4 4 4 5 7 5 4 4 6 7 7 4 3 4 4 4 3 3 3 3 3 3 3 3 3 3 3
1 1 1 2 2 2 3 2 2 2 3 3 3 4 4 4 3 4 5 4 4 7 5 4 7 9 9 5 3 3 4 4 4 3 3 3 3 3 3 4 3 3 3 3
1 1 2 2 1 1 2 3 2 2 3 3 3 3 3 3 4 3 3 6 8 8 5 7 10 10 8 3 3 3 3 3 4 3 3 3 3 3 3 3 3 3 3 3
1 1 1 1 1 2 2 3 3 3 3 3 3 3 2 2 3 4 4 4 8 7 5 7 10 10 6 3 3 3 3 3 4 3 3 3 3 3 3 3 3 3 3 3
1 1 1 2 1 1 1 2 2 2 2 3 3 3 3 2 3 3 3 4 5 7 5 4 5 6 4 4 4 4 3 4 5 4 4 4 4 4 3 3 4 4 3 3
1 1 1 1 1 1 1 1 2 2 2 3 3 3 3 3 3 3 4 4 4 4 4 4 4 4 4 4 4 4 4 3 3 4 4 3 3 3 4 4 4 4 3 3
Wind_Direction
261 268 261 261 260 230 222 231 241 261 272 280 298 304 308 314 319 319 321 322 318 320 321 318 317 319 322 322 326 327 319 318 317 315 311 311 309 302 298 287 273 267 259 255
270 245 249 263 257 241 238 241 248 266 273 275 303 311 310 311 312 313 318 322 323 320 318 315 311 315 320 320 323 322 316 318 323 320 317 315 311 306 298 288 278 273 264 257
273 267 300 268 241 219 225 222 216 242 258 299 313 306 302 307 312 311 316 322 322 320 315 310 311 314 310 312 318 314 313 318 325 324 319 312 314 314 306 293 280 273 276 273
280 316 252 245 181 182 222 246 230 252 278 290 293 300 292 301 309 313 322 323 320 321 322 317 316 321 315 317 313 306 308 315 322 323 315 311 310 304 301 294 288 283 282 282
261 270 272 266 207 165 207 269 237 243 269 291 316 317 296 315 322 315 320 318 316 320 318 319 322 322 320 320 321 313 313 320 323 321 313 310 306 304 304 301 298 296 292 283
241 253 259 260 113 100 104 279 267 232 267 301 341 315 297 338 339 328 325 324 326 327 325 327 327 328 321 315 319 320 319 314 311 310 309 307 306 303 300 294 292 292 292 284
236 248 264 252 150 107 182 264 314 293 275 285 258 259 292 321 326 328 329 329 332 330 326 326 332 334 324 321 319 316 316 313 307 305 305 304 306 306 301 300 301 295 291 290
206 229 255 165 141 189 232 283 307 308 301 292 293 303 311 316 321 329 330 329 333 332 327 329 336 334 326 320 316 318 318 316 315 315 314 314 311 311 310 308 302 299 300 303
203 220 235 171 199 226 288 299 308 318 314 310 305 305 310 313 316 319 320 322 328 326 324 329 334 334 324 316 321 322 322 320 320 324 324 321 316 315 317 312 301 300 298 302
262 264 263 231 242 265 257 266 300 316 313 314 301 303 308 310 313 316 317 321 324 325 327 326 329 330 322 319 323 324 324 323 323 327 326 325 322 317 315 314 305 299 300 303
255 277 302 279 262 276 289 302 308 311 305 297 298 300 301 303 307 311 314 317 319 318 319 318 321 324 324 327 330 326 323 323 325 325 324 327 326 326 323 320 309 305 289 290
237 242 231 271 310 301 285 287 290 297 303 300 285 290 299 298 303 306 309 314 317 317 317 317 320 320 322 324 325 323 322 324 323 324 324 324 325 330 331 320 324 324 323 312
232 290 267 276 297 297 270 279 288 283 282 292 294 290 295 299 304 309 311 314 313 311 312 314 317 318 321 323 323 322 315 315 316 319 321 322 324 327 325 324 325 329 331 326
238 279 283 286 293 302 291 285 286 289 293 292 296 303 304 304 307 308 308 308 310 311 311 310 312 314 320 324 323 321 315 314 314 311 312 314 316 315 316 318 325 326 326 331
276 242 252 293 315 320 319 317 314 309 314 316 317 316 312 307 303 303 305 310 313 312 311 312 314 315 323 324 321 318 313 313 312 309 313 314 314 313 312 314 318 323 331 339
278 269 260 271 283 294 302 303 299 299 305 308 314 313 309 305 303 304 308 312 314 312 313 314 311 312 319 320 318 314 310 314 317 315 315 316 313 312 314 316 320 325 328 333
234 264 273 282 287 289 278 274 275 284 293 297 300 307 312 312 311 310 311 312 308 304 307 310 309 313 317 317 313 310 309 313 316 317 315 313 313 311 310 311 314 315 315 323
239 244 239 247 260 277 283 281 278 284 288 291 302 308 306 302 301 306 311 315 316 313 311 312 314 318 316 315 311 308 309 310 311 309 308 309 308 308 307 307 309 308 311 322
261 259 258 260 259 260 267 272 276 280 289 296 297 293 291 291 294 302 309 313 314 313 317 319 320 323 314 311 316 310 310 310 310 309 307 307 309 310 312 310 309 310 311 316
275 276 274 274 274 264 267 274 283 289 290 292 293 297 299 300 302 306 307 302 296 295 306 315 321 318 313 309 316 308 308 309 308 309 311 309 309 312 312 310 308 307 309 310
280 285 285 287 290 286 277 278 278 282 289 287 283 287 292 299 301 303 304 304 306 308 313 315 321 316 312 312 314 311 309 308 307 306 309 311 313 311 309 309 309 309 306 307
285 285 290 296 298 298 296 288 275 278 288 292 291 295 302 304 305 302 290 283 300 315 321 314 315 313 315 317 313 313 310 308 307 307 309 310 309 308 308 305 302 303 304 305
291 291 296 296 292 296 303 296 284 282 285 287 288 290 291 292 294 298 306 308 309 316 321 313 317 318 318 321 314 311 310 309 307 305 308 311 311 310 308 306 306 306 306 305
301 298 297 303 312 310 306 308 309 303 292 289 286 284 286 297 301 290 289 309 318 320 319 318 324 327 330 335 326 319 314 311 310 310 311 310 307 305 304 304 305 305 301 298
296 290 290 295 293 290 298 311 314 307 306 305 305 304 294 280 284 302 309 309 314 323 324 324 326 329 334 330 324 319 317 311 309 311 309 308 306 304 305 307 306 303 298 294
281 277 272 266 268 283 300 306 306 308 315 317 318 318 317 313 307 309 313 315 319 324 328 324 325 327 330 325 320 318 316 316 319 320 317 312 308 306 305 307 307 302 299 295
299 303 309 314 312 309 306 303 302 307 311 310 310 315 320 322 321 322 322 322 323 325 325 326 327 328 326 324 322 320 317 316 315 312 311 310 307 305 305 303 301 299 297 293